Terminal Aerodrome Forecast
Issued by NWS

Home | Current Version | Previous Version | Text Only | Print | Product List | Glossary Off
Versions: 1 2 3 4 5 6 7 8 9 10 11 12 13 14 15 16 17 18 19

665
FTUS43 KFGF 111555 AAA
TAFBJI
TAF AMD
KBJI 111555Z 1116/1212 00000KT P6SM OVC070
     FM112100 29006KT P6SM OVC030
     FM120300 30009KT P6SM OVC050
     FM120500 31011KT P6SM BKN250=

USA.gov is the U.S. government's official web portal to all federal, state and local government web resources and services.